When you browse on this site, cookies collect data to enhance your experience and personalize the content and advertising you see.
Visit our Privacy Policy to learn more. By continuing to use the site, you agree to this use of cookies and data.
  • In United Kingdom
  • List of Countries
  • For 7 days
  • Water Temperature
  • Weather Map
  • Weather Widgets
  • user-avatar
    Login

    Hourly Weather Linz

    Today, 15 September, Sunday

    Time Temperature Precipitation Wind Pressure Humidity
    00:00 +14°C° 0 mm 1 mps 742 mmHg 92%
    01:00 +13°C° 0 mm 1 mps 742 mmHg 93%
    02:00 +13°C° 0 mm 1 mps 742 mmHg 93%
    03:00 +13°C° 0 mm 1 mps 742 mmHg 93%
    04:00 +13°C° 0 mm 1 mps 741 mmHg 94%
    05:00 +12°C° 0 mm 0 mps 741 mmHg 92%
    06:00 +13°C° 0 mm 0 mps 741 mmHg 90%
    07:00 +14°C° 0 mm 0 mps 741 mmHg 86%
    08:00 +18°C° 0 mm 1 mps 741 mmHg 81%
    09:00 +20°C° 0 mm 1 mps 740 mmHg 76%
    10:00 +22°C° 0 mm 1 mps 740 mmHg 70%
    11:00 +23°C° 0 mm 1 mps 740 mmHg 67%
    12:00 +24°C° 0 mm 1 mps 740 mmHg 64%
    13:00 +26°C° 0 mm 1 mps 739 mmHg 60%
    14:00 +26°C° 0 mm 1 mps 739 mmHg 62%
    15:00 +26°C° 0 mm 2 mps 738 mmHg 63%
    16:00 +26°C° 0 mm 2 mps 738 mmHg 64%
    17:00 +24°C° 0 mm 2 mps 738 mmHg 72%
    18:00 +22°C° 0 mm 1 mps 738 mmHg 80%
    19:00 +20°C° 0 mm 1 mps 738 mmHg 88%
    20:00 +19°C° 0 mm 1 mps 738 mmHg 89%
    21:00 +19°C° 0 mm 1 mps 738 mmHg 90%
    22:00 +18°C° 0 mm 1 mps 738 mmHg 92%
    23:00 +18°C° 0 mm 1 mps 738 mmHg 92%

    Tomorrow, 16 September, Monday

    Time Temperature Precipitation Wind Pressure Humidity
    00:00 +18°C° 0 mm 1 mps 738 mmHg 92%
    01:00 +16°C° 0 mm 1 mps 738 mmHg 93%
    02:00 +15°C° 0 mm 0 mps 737 mmHg 93%
    03:00 +15°C° 0 mm 0 mps 737 mmHg 94%
    04:00 +15°C° 0 mm 0 mps 737 mmHg 94%
    05:00 +15°C° 0 mm 0 mps 737 mmHg 93%
    06:00 +16°C° 0 mm 0 mps 737 mmHg 92%
    07:00 +16°C° 0 mm 0 mps 737 mmHg 91%
    08:00 +20°C° 0 mm 1 mps 737 mmHg 85%
    09:00 +22°C° 0 mm 1 mps 737 mmHg 79%
    10:00 +23°C° 0 mm 1 mps 737 mmHg 73%
    11:00 +24°C° 0.3 mm 2 mps 736 mmHg 71%
    12:00 +25°C° 0.3 mm 2 mps 736 mmHg 70%
    13:00 +25°C° 0.3 mm 2 mps 735 mmHg 68%
    14:00 +25°C° 0.5 mm 2 mps 735 mmHg 69%
    15:00 +25°C° 0.5 mm 2 mps 735 mmHg 71%
    16:00 +25°C° 0.5 mm 2 mps 734 mmHg 72%
    17:00 +23°C° 0.3 mm 2 mps 734 mmHg 76%
    18:00 +21°C° 0.3 mm 1 mps 734 mmHg 80%
    19:00 +20°C° 0.3 mm 1 mps 734 mmHg 84%
    20:00 +19°C° 0.1 mm 1 mps 734 mmHg 86%
    21:00 +18°C° 0.1 mm 1 mps 734 mmHg 87%
    22:00 +18°C° 0.1 mm 1 mps 734 mmHg 89%
    23:00 +18°C° 0.1 mm 1 mps 734 mmHg 89%

    Day after tomorrow, 17 September, Tuesday

    Time Temperature Precipitation Wind Pressure Humidity
    00:00 +16°C° 0.1 mm 1 mps 734 mmHg 89%
    01:00 +16°C° 0.1 mm 1 mps 734 mmHg 89%
    02:00 +16°C° 0.2 mm 1 mps 734 mmHg 91%
    03:00 +16°C° 0.2 mm 1 mps 734 mmHg 93%
    04:00 +16°C° 0.2 mm 2 mps 733 mmHg 95%
    05:00 +16°C° 0 mm 2 mps 733 mmHg 93%
    06:00 +16°C° 0 mm 2 mps 733 mmHg 92%
    07:00 +17°C° 0 mm 2 mps 733 mmHg 91%
    08:00 +17°C° 0 mm 2 mps 734 mmHg 89%
    09:00 +17°C° 0 mm 2 mps 734 mmHg 86%
    10:00 +17°C° 0 mm 3 mps 734 mmHg 84%
    11:00 +18°C° 0 mm 3 mps 734 mmHg 82%
    12:00 +18°C° 0 mm 4 mps 734 mmHg 81%
    13:00 +18°C° 0 mm 4 mps 734 mmHg 79%
    14:00 +19°C° 0.1 mm 4 mps 734 mmHg 77%
    15:00 +19°C° 0.1 mm 4 mps 734 mmHg 75%
    16:00 +20°C° 0.1 mm 5 mps 734 mmHg 73%
    17:00 +18°C° 0.1 mm 4 mps 734 mmHg 77%
    18:00 +17°C° 0.1 mm 3 mps 734 mmHg 81%
    19:00 +14°C° 0.1 mm 3 mps 734 mmHg 85%
    20:00 +14°C° 0 mm 3 mps 735 mmHg 87%
    21:00 +14°C° 0 mm 2 mps 735 mmHg 88%
    22:00 +13°C° 0 mm 2 mps 735 mmHg 90%
    23:00 +12°C° 0 mm 2 mps 736 mmHg 90%

    18 September, Wednesday

    Time Temperature Precipitation Wind Pressure Humidity
    00:00 +10°C° 0 mm 2 mps 736 mmHg 90%
    01:00 +10°C° 0 mm 1 mps 736 mmHg 90%
    02:00 +10°C° 0 mm 1 mps 736 mmHg 90%
    03:00 +9°C° 0 mm 1 mps 736 mmHg 90%
    04:00 +9°C° 0 mm 1 mps 736 mmHg 90%
    05:00 +9°C° 0 mm 1 mps 737 mmHg 89%
    06:00 +9°C° 0 mm 1 mps 737 mmHg 87%
    07:00 +10°C° 0 mm 1 mps 737 mmHg 85%
    08:00 +11°C° 0 mm 1 mps 737 mmHg 77%
    09:00 +13°C° 0 mm 1 mps 738 mmHg 69%
    10:00 +15°C° 0 mm 1 mps 738 mmHg 62%
    11:00 +16°C° 0 mm 1 mps 738 mmHg 57%
    12:00 +16°C° 0 mm 1 mps 737 mmHg 52%
    13:00 +17°C° 0 mm 2 mps 737 mmHg 48%
    14:00 +17°C° 0 mm 2 mps 737 mmHg 49%
    15:00 +17°C° 0 mm 2 mps 737 mmHg 49%
    16:00 +17°C° 0 mm 2 mps 736 mmHg 50%
    17:00 +15°C° 0 mm 2 mps 737 mmHg 56%
    18:00 +13°C° 0 mm 1 mps 737 mmHg 62%
    19:00 +11°C° 0 mm 1 mps 737 mmHg 68%
    20:00 +10°C° 0 mm 1 mps 737 mmHg 70%
    21:00 +9°C° 0 mm 1 mps 738 mmHg 72%
    22:00 +8°C° 0 mm 1 mps 738 mmHg 74%
    23:00 +8°C° 0 mm 1 mps 738 mmHg 76%

    19 September, Thursday

    Time Temperature Precipitation Wind Pressure Humidity
    00:00 +6°C° 0 mm 0 mps 738 mmHg 78%
    01:00 +6°C° 0 mm 0 mps 738 mmHg 80%
    02:00 +6°C° 0 mm 0 mps 738 mmHg 81%
    03:00 +5°C° 0 mm 0 mps 738 mmHg 82%
    04:00 +5°C° 0 mm 0 mps 738 mmHg 83%
    05:00 +6°C° 0 mm 0 mps 738 mmHg 81%
    06:00 +6°C° 0 mm 0 mps 738 mmHg 79%
    07:00 +7°C° 0 mm 0 mps 739 mmHg 77%
    08:00 +10°C° 0 mm 1 mps 739 mmHg 71%
    09:00 +11°C° 0 mm 1 mps 739 mmHg 64%
    10:00 +13°C° 0 mm 1 mps 739 mmHg 58%
    11:00 +14°C° 0 mm 1 mps 739 mmHg 56%
    12:00 +14°C° 0 mm 2 mps 739 mmHg 54%
    13:00 +15°C° 0 mm 2 mps 739 mmHg 52%
    14:00 +15°C° 0 mm 2 mps 739 mmHg 52%
    15:00 +15°C° 0 mm 2 mps 738 mmHg 52%
    16:00 +15°C° 0 mm 2 mps 738 mmHg 52%
    17:00 +13°C° 0 mm 2 mps 739 mmHg 58%
    18:00 +10°C° 0 mm 2 mps 740 mmHg 64%
    19:00 +10°C° 0 mm 1 mps 740 mmHg 69%
    20:00 +9°C° 0 mm 1 mps 741 mmHg 71%
    21:00 +9°C° 0 mm 1 mps 741 mmHg 73%
    22:00 +8°C° 0 mm 1 mps 741 mmHg 75%
    23:00 +8°C° 0 mm 1 mps 742 mmHg 77%

    20 September, Friday

    Time Temperature Precipitation Wind Pressure Humidity
    00:00 +7°C° 0 mm 1 mps 742 mmHg 79%
    01:00 +7°C° 0 mm 1 mps 742 mmHg 80%
    02:00 +6°C° 0 mm 1 mps 742 mmHg 83%
    03:00 +6°C° 0 mm 1 mps 742 mmHg 86%
    04:00 +4°C° 0 mm 0 mps 742 mmHg 88%
    05:00 +5°C° 0 mm 0 mps 742 mmHg 86%
    06:00 +5°C° 0 mm 0 mps 742 mmHg 84%
    07:00 +6°C° 0 mm 0 mps 742 mmHg 82%
    08:00 +9°C° 0 mm 1 mps 742 mmHg 72%
    09:00 +11°C° 0 mm 1 mps 743 mmHg 61%
    10:00 +13°C° 0 mm 2 mps 743 mmHg 51%
    11:00 +14°C° 0 mm 2 mps 742 mmHg 47%
    12:00 +14°C° 0 mm 2 mps 742 mmHg 43%
    13:00 +15°C° 0 mm 2 mps 742 mmHg 38%
    14:00 +15°C° 0 mm 2 mps 741 mmHg 40%
    15:00 +15°C° 0 mm 2 mps 741 mmHg 41%
    16:00 +14°C° 0 mm 2 mps 741 mmHg 43%
    17:00 +12°C° 0 mm 2 mps 741 mmHg 50%
    18:00 +9°C° 0 mm 2 mps 742 mmHg 56%
    19:00 +7°C° 0 mm 2 mps 742 mmHg 63%
    20:00 +6°C° 0 mm 2 mps 742 mmHg 65%
    21:00 +6°C° 0 mm 2 mps 743 mmHg 68%
    22:00 +5°C° 0 mm 2 mps 743 mmHg 70%
    23:00 +5°C° 0 mm 2 mps 743 mmHg 71%
    Show more